Radiation Dose at Monitoring Post of Fukushima Daini Nuclear Power Station
Date,Time,MP-1(microSv/h),MP-2(microSv/h),MP-3(microSv/h),MP-4(microSv/h),MP-5(microSv/h),MP-6(microSv/h),MP-7(microSv/h),Wind Direction,Wind Velocity(m/s),Rain
2022/08/22,00:00,0.153,0.141,0.219,0.212,0.213,0.122,0.078,north-northwest,5.9,No
2022/08/22,00:10,0.151,0.141,0.222,0.215,0.215,0.121,0.078,north-northwest,6.3,No
2022/08/22,00:20,0.151,0.141,0.220,0.213,0.215,0.121,0.078,north-northwest,5.8,No
2022/08/22,00:30,0.152,0.142,0.220,0.215,0.214,0.121,0.078,north-northwest,6.8,No
2022/08/22,00:40,0.152,0.140,0.221,0.214,0.216,0.121,0.078,north-northwest,6.7,No
2022/08/22,00:50,0.150,0.141,0.220,0.212,0.214,0.121,0.078,north-northwest,5.1,No
2022/08/22,01:00,0.153,0.141,0.220,0.214,0.212,0.121,0.078,north-northwest,4.6,No
2022/08/22,01:10,0.152,0.140,0.222,0.213,0.215,0.121,0.077,north-northwest,4.3,No
2022/08/22,01:20,0.150,0.142,0.221,0.212,0.214,0.121,0.078,north-northwest,4.3,No
2022/08/22,01:30,0.152,0.141,0.220,0.214,0.214,0.120,0.077,north-northwest,5.3,No
2022/08/22,01:40,0.153,0.140,0.221,0.214,0.215,0.121,0.077,north-northwest,4.9,No
2022/08/22,01:50,0.151,0.141,0.219,0.212,0.215,0.121,0.077,north-northwest,4.7,No
2022/08/22,02:00,0.153,0.141,0.220,0.214,0.212,0.121,0.077,north-northwest,4.9,No
2022/08/22,02:10,0.153,0.140,0.221,0.214,0.214,0.121,0.078,north-northwest,4.8,No
2022/08/22,02:20,0.150,0.141,0.219,0.213,0.215,0.121,0.078,north-northwest,4.8,No
2022/08/22,02:30,0.151,0.141,0.222,0.214,0.212,0.121,0.078,north-northwest,5.0,No
2022/08/22,02:40,0.153,0.140,0.220,0.213,0.215,0.121,0.077,north-northwest,4.7,No
2022/08/22,02:50,0.152,0.141,0.219,0.212,0.215,0.121,0.077,north-northwest,4.4,No
2022/08/22,03:00,0.151,0.141,0.222,0.214,0.213,0.120,0.077,north-northwest,4.3,No
2022/08/22,03:10,0.152,0.140,0.219,0.211,0.215,0.121,0.076,north-northwest,5.6,No
2022/08/22,03:20,0.151,0.140,0.220,0.214,0.214,0.121,0.078,north-northwest,4.9,No
2022/08/22,03:30,0.152,0.141,0.221,0.215,0.214,0.121,0.077,north-northwest,4.8,No
2022/08/22,03:40,0.152,0.141,0.220,0.211,0.215,0.122,0.077,northwest,4.8,No
2022/08/22,03:50,0.151,0.141,0.221,0.214,0.214,0.121,0.078,north-northwest,5.8,No
2022/08/22,04:00,0.151,0.140,0.220,0.212,0.214,0.120,0.077,north-northwest,5.5,No
2022/08/22,04:10,0.153,0.141,0.221,0.212,0.215,0.121,0.077,north-northwest,5.4,No
2022/08/22,04:20,0.151,0.141,0.222,0.214,0.213,0.121,0.077,north-northwest,6.1,No
2022/08/22,04:30,0.152,0.141,0.219,0.213,0.214,0.121,0.077,northwest,6.4,No
2022/08/22,04:40,0.151,0.142,0.222,0.214,0.215,0.122,0.077,north-northwest,6.1,No
2022/08/22,04:50,0.150,0.141,0.221,0.214,0.213,0.121,0.078,north-northwest,6.0,No
2022/08/22,05:00,0.151,0.139,0.220,0.212,0.215,0.121,0.077,north-northwest,6.2,No
2022/08/22,05:10,0.152,0.142,0.222,0.213,0.214,0.123,0.078,northwest,6.4,No
2022/08/22,05:20,0.151,0.140,0.221,0.213,0.212,0.120,0.077,north-northwest,6.3,No
2022/08/22,05:30,0.153,0.141,0.220,0.212,0.215,0.120,0.077,north-northwest,5.8,No
2022/08/22,05:40,0.150,0.140,0.220,0.213,0.213,0.121,0.078,north-northwest,5.5,No
2022/08/22,05:50,0.151,0.140,0.221,0.211,0.212,0.120,0.077,north-northwest,6.0,No
2022/08/22,06:00,0.153,0.140,0.220,0.215,0.216,0.120,0.078,north-northwest,6.1,No
2022/08/22,06:10,0.151,0.141,0.219,0.213,0.213,0.121,0.077,north-northwest,5.4,No
2022/08/22,06:20,0.150,0.140,0.221,0.211,0.213,0.121,0.078,north-northwest,5.7,No
2022/08/22,06:30,0.151,0.141,0.222,0.213,0.214,0.120,0.078,north,5.2,No
2022/08/22,06:40,0.152,0.141,0.219,0.214,0.214,0.121,0.078,north-northwest,4.7,No
2022/08/22,06:50,0.149,0.141,0.220,0.212,0.212,0.122,0.077,north-northwest,4.5,No
2022/08/22,07:00,0.152,0.141,0.222,0.213,0.216,0.120,0.076,north,4.2,No
2022/08/22,07:10,0.151,0.141,0.220,0.214,0.214,0.120,0.078,north-northwest,4.1,No
2022/08/22,07:20,0.150,0.140,0.218,0.212,0.213,0.123,0.077,north,3.5,No
2022/08/22,07:30,0.151,0.139,0.220,0.211,0.211,0.121,0.076,north,4.1,No
2022/08/22,07:40,0.151,0.141,0.219,0.212,0.215,0.121,0.077,north-northwest,4.1,No
2022/08/22,07:50,0.151,0.140,0.219,0.213,0.215,0.120,0.077,north,4.1,No
2022/08/22,08:00,0.150,0.140,0.219,0.213,0.214,0.121,0.077,north-northwest,3.6,No
2022/08/22,08:10,0.150,0.140,0.219,0.212,0.212,0.121,0.076,north,2.9,No
2022/08/22,08:20,0.152,0.141,0.218,0.211,0.212,0.120,0.076,north-northeast,3.2,No
2022/08/22,08:30,0.151,0.140,0.218,0.210,0.211,0.120,0.078,north,4.1,No
2022/08/22,08:40,0.150,0.140,0.217,0.210,0.216,0.120,0.077,north,3.8,No
2022/08/22,08:50,0.150,0.139,0.221,0.211,0.214,0.121,0.076,north-northwest,3.6,No
2022/08/22,09:00,0.152,0.142,0.222,0.215,0.214,0.121,0.077,north-northwest,3.3,No
2022/08/22,09:10,0.152,0.140,0.220,0.214,0.213,0.121,0.077,north,2.4,No
2022/08/22,09:20,0.150,0.140,0.220,0.213,0.212,0.120,0.076,north-northwest,2.7,No
2022/08/22,09:30,0.149,0.140,0.218,0.212,0.214,0.120,0.076,north,3.4,No
2022/08/22,09:40,0.151,0.139,0.219,0.213,0.212,0.121,0.077,north,3.2,No
2022/08/22,09:50,0.152,0.141,0.219,0.212,0.212,0.120,0.077,north,3.7,No
2022/08/22,10:00,0.152,0.141,0.218,0.210,0.212,0.121,0.077,north,3.5,No
2022/08/22,10:10,0.150,0.140,0.221,0.213,0.214,0.121,0.077,north,4.0,No
2022/08/22,10:20,0.151,0.139,0.222,0.216,0.216,0.121,0.077,north,3.6,No
2022/08/22,10:30,0.152,0.141,0.220,0.214,0.214,0.121,0.078,north,4.0,Yes
2022/08/22,10:40,0.151,0.141,0.219,0.212,0.214,0.120,0.077,north,3.8,No
2022/08/22,10:50,0.150,0.141,0.218,0.212,0.213,0.121,0.077,north,4.6,No
2022/08/22,11:00,0.151,0.140,0.221,0.212,0.212,0.121,0.077,north,4.4,No
2022/08/22,11:10,0.152,0.140,0.222,0.214,0.212,0.121,0.077,north,5.0,No
2022/08/22,11:20,0.151,0.141,0.221,0.215,0.212,0.121,0.076,north,3.7,No
2022/08/22,11:30,0.149,0.140,0.220,0.214,0.213,0.121,0.076,north,3.7,No
2022/08/22,11:40,0.150,0.139,0.220,0.213,0.214,0.120,0.077,north-northeast,4.0,No
2022/08/22,11:50,0.150,0.139,0.218,0.212,0.213,0.121,0.076,north,3.7,No
2022/08/22,12:00,0.153,0.140,0.221,0.212,0.214,0.120,0.076,north,3.7,No
2022/08/22,12:10,0.152,0.139,0.220,0.212,0.214,0.121,0.076,north,3.4,No
2022/08/22,12:20,0.151,0.139,0.219,0.212,0.213,0.120,0.076,north,3.4,No
2022/08/22,12:30,0.150,0.141,0.219,0.211,0.214,0.121,0.077,north-northeast,2.6,No
2022/08/22,12:40,0.152,0.142,0.219,0.213,0.214,0.121,0.077,north-northeast,2.4,No
2022/08/22,12:50,0.153,0.141,0.220,0.212,0.213,0.120,0.077,north,3.9,No
2022/08/22,13:00,0.151,0.140,0.219,0.211,0.213,0.121,0.077,north,4.8,No
2022/08/22,13:10,0.151,0.140,0.219,0.211,0.214,0.122,0.076,north,4.0,No
2022/08/22,13:20,0.150,0.141,0.220,0.211,0.213,0.121,0.077,north-northeast,4.2,No
2022/08/22,13:30,0.152,0.142,0.220,0.216,0.212,0.122,0.077,north-northeast,4.0,No
2022/08/22,13:40,0.153,0.141,0.223,0.216,0.212,0.120,0.076,north-northeast,4.6,No
2022/08/22,13:50,0.151,0.141,0.222,0.213,0.217,0.120,0.077,north-northeast,3.7,No
2022/08/22,14:00,0.151,0.140,0.222,0.213,0.217,0.121,0.077,north-northeast,2.7,No
2022/08/22,14:10,0.150,0.142,0.220,0.213,0.215,0.122,0.078,north,3.1,No
2022/08/22,14:20,0.153,0.141,0.219,0.213,0.214,0.122,0.077,north,3.8,No
2022/08/22,14:30,0.151,0.140,0.223,0.216,0.214,0.121,0.077,north,4.4,No
2022/08/22,14:40,0.150,0.140,0.222,0.215,0.213,0.121,0.078,north,3.6,No
2022/08/22,14:50,0.151,0.142,0.221,0.213,0.217,0.121,0.077,north,4.0,No
2022/08/22,15:00,0.152,0.141,0.220,0.211,0.216,0.121,0.077,north,3.8,No
2022/08/22,15:10,0.151,0.140,0.219,0.213,0.213,0.121,0.076,north-northwest,3.4,No
2022/08/22,15:20,0.150,0.140,0.221,0.216,0.212,0.122,0.078,northwest,2.2,No
2022/08/22,15:30,0.152,0.142,0.223,0.216,0.212,0.121,0.078,north-northwest,1.7,No
2022/08/22,15:40,0.151,0.141,0.221,0.213,0.214,0.120,0.078,north-northwest,2.0,No
2022/08/22,15:50,0.151,0.141,0.220,0.213,0.215,0.120,0.076,north,2.4,No
2022/08/22,16:00,0.150,0.141,0.219,0.212,0.216,0.121,0.077,north,3.2,No
2022/08/22,16:10,0.151,0.142,0.221,0.213,0.214,0.121,0.077,north,3.6,No
2022/08/22,16:20,0.152,0.142,0.223,0.216,0.213,0.121,0.078,north,3.6,No
2022/08/22,16:30,0.151,0.140,0.220,0.215,0.212,0.121,0.076,north,3.9,No
2022/08/22,16:40,0.151,0.138,0.219,0.214,0.213,0.121,0.076,north,3.0,No
2022/08/22,16:50,0.151,0.141,0.219,0.212,0.213,0.121,0.077,north,4.1,No
2022/08/22,17:00,0.153,0.142,0.221,0.212,0.212,0.121,0.078,north,4.3,No
2022/08/22,17:10,0.151,0.140,0.224,0.216,0.212,0.120,0.078,north,4.4,No
2022/08/22,17:20,0.151,0.140,0.220,0.215,0.214,0.121,0.077,north,4.2,No
2022/08/22,17:30,0.152,0.141,0.220,0.213,0.217,0.121,0.077,north,3.9,No
2022/08/22,17:40,0.152,0.142,0.219,0.212,0.216,0.121,0.078,north,3.9,No
2022/08/22,17:50,0.151,0.140,0.223,0.215,0.214,0.121,0.077,north,4.3,No
2022/08/22,18:00,0.151,0.141,0.222,0.215,0.215,0.120,0.077,north,4.2,No
2022/08/22,18:10,0.152,0.142,0.219,0.213,0.217,0.120,0.078,north,3.8,No
2022/08/22,18:20,0.151,0.140,0.221,0.214,0.215,0.121,0.078,north-northwest,3.7,No
2022/08/22,18:30,0.151,0.140,0.223,0.216,0.213,0.122,0.077,north-northwest,3.1,No
2022/08/22,18:40,0.153,0.142,0.221,0.214,0.216,0.120,0.077,north-northwest,1.7,No
2022/08/22,18:50,0.151,0.141,0.220,0.212,0.217,0.121,0.078,north-northwest,1.5,No
2022/08/22,19:00,0.152,0.140,0.222,0.215,0.214,0.121,0.077,northwest,1.6,No
2022/08/22,19:10,0.152,0.141,0.222,0.214,0.214,0.121,0.076,north-northwest,1.6,No
2022/08/22,19:20,0.153,0.141,0.220,0.214,0.217,0.120,0.077,north-northwest,1.5,No
2022/08/22,19:30,0.152,0.140,0.222,0.215,0.215,0.120,0.078,northwest,2.3,No
2022/08/22,19:40,0.151,0.141,0.222,0.215,0.214,0.121,0.077,north-northwest,2.1,No
2022/08/22,19:50,0.153,0.142,0.220,0.213,0.214,0.121,0.077,north-northwest,1.7,No
2022/08/22,20:00,0.150,0.141,0.221,0.214,0.216,0.121,0.078,north-northwest,2.7,No
2022/08/22,20:10,0.151,0.141,0.224,0.215,0.214,0.121,0.077,northwest,2.8,No
2022/08/22,20:20,0.153,0.142,0.221,0.214,0.213,0.121,0.078,northwest,2.5,No
2022/08/22,20:30,0.152,0.140,0.220,0.212,0.216,0.121,0.078,north-northwest,1.4,No
2022/08/22,20:40,0.150,0.141,0.223,0.215,0.214,0.121,0.077,north,1.3,No
2022/08/22,20:50,0.152,0.142,0.221,0.214,0.214,0.121,0.077,northwest,0.9,No
2022/08/22,21:00,0.152,0.141,0.219,0.213,0.214,0.121,0.077,west-northwest,0.9,No
2022/08/22,21:10,0.151,0.140,0.223,0.214,0.216,0.120,0.077,west-northwest,0.8,No
2022/08/22,21:20,0.151,0.141,0.222,0.215,0.214,0.120,0.077,-,CALM,No
2022/08/22,21:30,0.153,0.140,0.219,0.214,0.212,0.122,0.077,-,CALM,No
2022/08/22,21:40,0.152,0.140,0.220,0.214,0.216,0.120,0.078,-,CALM,No
2022/08/22,21:50,0.151,0.141,0.221,0.215,0.216,0.120,0.077,south-southwest,1.0,No
2022/08/22,22:00,0.152,0.142,0.220,0.214,0.213,0.122,0.076,southwest,1.3,No
2022/08/22,22:10,0.152,0.140,0.220,0.213,0.212,0.121,0.077,south,0.6,No
2022/08/22,22:20,0.152,0.140,0.223,0.214,0.216,0.120,0.078,south-southwest,0.9,No
2022/08/22,22:30,0.151,0.142,0.221,0.216,0.215,0.121,0.076,south,1.2,No
2022/08/22,22:40,0.153,0.140,0.219,0.214,0.213,0.121,0.077,south,1.2,No
2022/08/22,22:50,0.151,0.140,0.222,0.213,0.213,0.121,0.078,south,1.6,No
2022/08/22,23:00,0.150,0.141,0.222,0.216,0.217,0.121,0.078,south-southeast,1.2,No
2022/08/22,23:10,0.152,0.141,0.221,0.214,0.215,0.121,0.077,south-southeast,1.5,No
2022/08/22,23:20,0.152,0.141,0.222,0.212,0.212,0.121,0.078,south,0.8,No
2022/08/22,23:30,0.151,0.141,0.223,0.215,0.217,0.122,0.078,south,1.6,No
2022/08/22,23:40,0.153,0.141,0.221,0.217,0.216,0.122,0.078,south-southeast,1.5,No
2022/08/22,23:50,0.152,0.141,0.223,0.214,0.215,0.122,0.078,south-southeast,2.4,No
